• In Hungary
  • List of Countries
  • For 7 days
  • Water Temperature
  • Satellite Maps
  • Weather Map
  • News
  • Weather Widgets
  • user-avatar
    Login

    Hourly Weather Peredil

    Today, 23 October, Tuesday

    Time Temperature Precipitation Wind Pressure Humidity
    00:00 +4°C° 0 mm 2 mps 751 mmHg 72%
    01:00 +4°C° 0 mm 2 mps 751 mmHg 73%
    02:00 +4°C° 0 mm 2 mps 751 mmHg 75%
    03:00 +2°C° 0 mm 3 mps 750 mmHg 78%
    04:00 +2°C° 0 mm 3 mps 749 mmHg 81%
    05:00 +2°C° 0 mm 3 mps 749 mmHg 84%
    06:00 +2°C° 0 mm 3 mps 748 mmHg 83%
    07:00 +3°C° 0 mm 4 mps 748 mmHg 82%
    08:00 +3°C° 0 mm 4 mps 748 mmHg 81%
    09:00 +4°C° 0.1 mm 4 mps 747 mmHg 80%
    10:00 +5°C° 0.1 mm 4 mps 747 mmHg 78%
    11:00 +5°C° 0.1 mm 5 mps 746 mmHg 77%
    12:00 +6°C° 0 mm 5 mps 746 mmHg 76%
    13:00 +6°C° 0 mm 5 mps 745 mmHg 76%
    14:00 +6°C° 0 mm 5 mps 744 mmHg 75%
    15:00 +6°C° 0 mm 4 mps 744 mmHg 74%
    16:00 +6°C° 0 mm 4 mps 743 mmHg 72%
    17:00 +6°C° 0 mm 4 mps 742 mmHg 71%
    18:00 +6°C° 0.1 mm 5 mps 741 mmHg 72%
    19:00 +6°C° 0.1 mm 5 mps 741 mmHg 72%
    20:00 +5°C° 0.1 mm 5 mps 740 mmHg 73%
    21:00 +4°C° 0.3 mm 6 mps 739 mmHg 75%
    22:00 +4°C° 0.3 mm 6 mps 737 mmHg 77%
    23:00 +4°C° 0.3 mm 6 mps 736 mmHg 79%

    Tomorrow, 24 October, Wednesday

    Time Temperature Precipitation Wind Pressure Humidity
    00:00 +4°C° 0.5 mm 7 mps 735 mmHg 80%
    01:00 +4°C° 0.5 mm 7 mps 734 mmHg 82%
    02:00 +4°C° 0.5 mm 7 mps 733 mmHg 84%
    03:00 +4°C° 0.4 mm 7 mps 732 mmHg 84%
    04:00 +4°C° 0.4 mm 7 mps 730 mmHg 85%
    05:00 +5°C° 0.4 mm 7 mps 729 mmHg 85%
    06:00 +5°C° 0.4 mm 7 mps 728 mmHg 84%
    07:00 +5°C° 0.4 mm 7 mps 728 mmHg 83%
    08:00 +5°C° 0.4 mm 6 mps 727 mmHg 82%
    09:00 +7°C° 0.2 mm 6 mps 727 mmHg 79%
    10:00 +7°C° 0.2 mm 6 mps 727 mmHg 76%
    11:00 +7°C° 0.2 mm 6 mps 727 mmHg 73%
    12:00 +7°C° 0.1 mm 5 mps 726 mmHg 72%
    13:00 +8°C° 0.1 mm 5 mps 726 mmHg 70%
    14:00 +8°C° 0.1 mm 4 mps 726 mmHg 68%
    15:00 +7°C° 0.1 mm 4 mps 726 mmHg 73%
    16:00 +7°C° 0.1 mm 3 mps 726 mmHg 79%
    17:00 +6°C° 0.1 mm 2 mps 727 mmHg 84%
    18:00 +5°C° 0.2 mm 3 mps 727 mmHg 84%
    19:00 +5°C° 0.2 mm 4 mps 727 mmHg 84%
    20:00 +5°C° 0.2 mm 4 mps 727 mmHg 84%
    21:00 +3°C° 0.3 mm 5 mps 727 mmHg 85%
    22:00 +3°C° 0.3 mm 5 mps 728 mmHg 86%
    23:00 +3°C° 0.3 mm 5 mps 728 mmHg 87%

    Day after tomorrow, 25 October, Thursday

    Time Temperature Precipitation Wind Pressure Humidity
    00:00 +3°C° 0.6 mm 6 mps 728 mmHg 86%
    01:00 +3°C° 0.6 mm 6 mps 729 mmHg 86%
    02:00 +3°C° 0.6 mm 7 mps 729 mmHg 85%
    03:00 +2°C° 0.1 mm 7 mps 729 mmHg 86%
    04:00 +2°C° 0.1 mm 7 mps 729 mmHg 86%
    05:00 +2°C° 0.1 mm 7 mps 729 mmHg 86%
    06:00 +2°C° 0 mm 7 mps 730 mmHg 85%
    07:00 +3°C° 0 mm 7 mps 730 mmHg 84%
    08:00 +3°C° 0 mm 7 mps 731 mmHg 83%
    09:00 +3°C° 0.1 mm 7 mps 731 mmHg 80%
    10:00 +4°C° 0.1 mm 7 mps 732 mmHg 78%
    11:00 +4°C° 0.1 mm 7 mps 732 mmHg 76%
    12:00 +4°C° 0.1 mm 7 mps 733 mmHg 75%
    13:00 +4°C° 0.1 mm 7 mps 733 mmHg 73%
    14:00 +4°C° 0.1 mm 7 mps 733 mmHg 71%
    15:00 +3°C° 0 mm 7 mps 734 mmHg 71%
    16:00 +3°C° 0 mm 6 mps 734 mmHg 71%
    17:00 +2°C° 0 mm 5 mps 735 mmHg 71%
    18:00 +2°C° 0 mm 5 mps 735 mmHg 71%
    19:00 +3°C° 0 mm 4 mps 735 mmHg 72%
    20:00 +3°C° 0 mm 3 mps 736 mmHg 72%
    21:00 +4°C° 0 mm 2 mps 736 mmHg 73%
    22:00 +4°C° 0 mm 2 mps 736 mmHg 74%
    23:00 +4°C° 0 mm 2 mps 737 mmHg 75%

    26 October, Friday

    Time Temperature Precipitation Wind Pressure Humidity
    00:00 +4°C° 0 mm 2 mps 737 mmHg 74%
    01:00 +3°C° 0 mm 2 mps 737 mmHg 74%
    02:00 +3°C° 0 mm 2 mps 738 mmHg 74%
    03:00 +3°C° 0 mm 2 mps 739 mmHg 75%
    04:00 +2°C° 0 mm 2 mps 739 mmHg 76%
    05:00 +2°C° 0 mm 2 mps 740 mmHg 78%
    06:00 +1°C° 0 mm 3 mps 740 mmHg 78%
    07:00 +1°C° 0 mm 3 mps 741 mmHg 79%
    08:00 +1°C° 0 mm 3 mps 742 mmHg 80%
    09:00 +3°C° 0 mm 4 mps 742 mmHg 75%
    10:00 +4°C° 0 mm 4 mps 742 mmHg 71%
    11:00 +5°C° 0 mm 5 mps 743 mmHg 67%
    12:00 +6°C° 0 mm 5 mps 743 mmHg 65%
    13:00 +6°C° 0 mm 5 mps 743 mmHg 63%
    14:00 +6°C° 0 mm 5 mps 743 mmHg 61%
    15:00 +6°C° 0.1 mm 4 mps 744 mmHg 66%
    16:00 +5°C° 0.1 mm 4 mps 744 mmHg 71%
    17:00 +5°C° 0.1 mm 3 mps 744 mmHg 76%
    18:00 +4°C° 0.1 mm 3 mps 745 mmHg 80%
    19:00 +4°C° 0.1 mm 3 mps 745 mmHg 84%
    20:00 +4°C° 0.1 mm 3 mps 746 mmHg 88%
    21:00 +3°C° 0 mm 3 mps 746 mmHg 89%
    22:00 +3°C° 0 mm 3 mps 746 mmHg 89%
    23:00 +3°C° 0 mm 3 mps 747 mmHg 89%

    27 October, Saturday

    Time Temperature Precipitation Wind Pressure Humidity
    00:00 +3°C° 0 mm 3 mps 747 mmHg 90%
    01:00 +2°C° 0 mm 3 mps 747 mmHg 91%
    02:00 +2°C° 0 mm 3 mps 747 mmHg 93%
    03:00 +2°C° 0 mm 3 mps 748 mmHg 93%
    04:00 +2°C° 0 mm 3 mps 748 mmHg 93%
    05:00 +2°C° 0 mm 3 mps 748 mmHg 94%
    06:00 +3°C° 0 mm 3 mps 748 mmHg 91%
    07:00 +3°C° 0 mm 4 mps 748 mmHg 88%
    08:00 +4°C° 0 mm 4 mps 748 mmHg 85%
    09:00 +6°C° 0 mm 5 mps 747 mmHg 79%
    10:00 +7°C° 0 mm 5 mps 747 mmHg 72%
    11:00 +8°C° 0 mm 6 mps 747 mmHg 66%
    12:00 +9°C° 0 mm 6 mps 747 mmHg 63%
    13:00 +10°C° 0 mm 6 mps 746 mmHg 60%
    14:00 +10°C° 0 mm 6 mps 746 mmHg 57%
    15:00 +10°C° 0 mm 5 mps 745 mmHg 60%
    16:00 +9°C° 0 mm 5 mps 745 mmHg 64%
    17:00 +9°C° 0 mm 5 mps 745 mmHg 68%
    18:00 +9°C° 0.2 mm 5 mps 745 mmHg 71%
    19:00 +9°C° 0.2 mm 5 mps 745 mmHg 74%
    20:00 +9°C° 0.2 mm 5 mps 744 mmHg 77%
    21:00 +9°C° 0.1 mm 5 mps 744 mmHg 81%
    22:00 +9°C° 0.1 mm 5 mps 744 mmHg 85%
    23:00 +8°C° 0.1 mm 5 mps 744 mmHg 89%

    28 October, Sunday

    Time Temperature Precipitation Wind Pressure Humidity
    00:00 +9°C° 0 mm 5 mps 744 mmHg 85%
    01:00 +9°C° 0 mm 5 mps 744 mmHg 81%
    02:00 +9°C° 0 mm 5 mps 744 mmHg 77%
    03:00 +9°C° 0 mm 5 mps 743 mmHg 79%
    04:00 +9°C° 0 mm 5 mps 743 mmHg 80%
    05:00 +9°C° 0 mm 5 mps 743 mmHg 81%
    06:00 +9°C° 0 mm 6 mps 743 mmHg 82%
    07:00 +10°C° 0 mm 6 mps 743 mmHg 83%
    08:00 +10°C° 0 mm 6 mps 743 mmHg 84%
    09:00 +11°C° 0 mm 6 mps 743 mmHg 78%
    10:00 +14°C° 0 mm 7 mps 743 mmHg 73%
    11:00 +15°C° 0 mm 7 mps 742 mmHg 68%
    12:00 +16°C° 0 mm 7 mps 742 mmHg 66%
    13:00 +16°C° 0 mm 7 mps 742 mmHg 64%
    14:00 +17°C° 0 mm 7 mps 742 mmHg 62%
    15:00 +16°C° 0 mm 6 mps 742 mmHg 64%
    16:00 +16°C° 0 mm 6 mps 742 mmHg 66%
    17:00 +15°C° 0 mm 5 mps 742 mmHg 69%
    18:00 +15°C° 0 mm 5 mps 742 mmHg 69%
    19:00 +15°C° 0 mm 5 mps 742 mmHg 69%
    20:00 +15°C° 0 mm 6 mps 743 mmHg 69%
    21:00 +15°C° 0.1 mm 5 mps 744 mmHg 72%
    22:00 +14°C° 0.1 mm 5 mps 744 mmHg 75%
    23:00 +14°C° 0.1 mm 5 mps 745 mmHg 78%

    29 October, Monday

    Time Temperature Precipitation Wind Pressure Humidity
    00:00 +13°C° 0 mm 5 mps 746 mmHg 78%
    01:00 +10°C° 0 mm 5 mps 747 mmHg 77%
    02:00 +9°C° 0 mm 5 mps 748 mmHg 77%
    03:00 +8°C° 0 mm 4 mps 748 mmHg 77%
    04:00 +8°C° 0 mm 3 mps 749 mmHg 76%
    05:00 +7°C° 0 mm 3 mps 750 mmHg 76%
    06:00 +7°C° 0 mm 3 mps 750 mmHg 75%
    07:00 +7°C° 0 mm 2 mps 751 mmHg 74%
    08:00 +7°C° 0 mm 2 mps 752 mmHg 73%
    09:00 +8°C° 0 mm 2 mps 752 mmHg 69%
    10:00 +8°C° 0 mm 2 mps 753 mmHg 64%
    11:00 +10°C° 0 mm 1 mps 753 mmHg 59%
    12:00 +10°C° 0 mm 1 mps 753 mmHg 60%
    13:00 +10°C° 0 mm 1 mps 753 mmHg 60%
    14:00 +10°C° 0 mm 1 mps 753 mmHg 60%
    15:00 +9°C° 0.2 mm 1 mps 753 mmHg 64%
    16:00 +9°C° 0.2 mm 1 mps 753 mmHg 68%
    17:00 +7°C° 0.2 mm 2 mps 753 mmHg 73%
    18:00 +7°C° 0.3 mm 2 mps 753 mmHg 75%
    19:00 +7°C° 0.3 mm 3 mps 753 mmHg 77%
    20:00 +6°C° 0.3 mm 4 mps 753 mmHg 79%
    21:00 +6°C° 0.7 mm 4 mps 752 mmHg 80%
    22:00 +6°C° 0.7 mm 5 mps 752 mmHg 82%
    23:00 +6°C° 0.7 mm 5 mps 751 mmHg 83%
    Show more